User: anonymous   Login
Location: Unspecified
(0.0000°N, 0.0000°E)
Time: 17:39:02
(UTC+00:00)
Language:

CARTOSAT 2D - Orbit

View from above orbital plane
View from above orbital plane
View from above satellite
View from above satellite

Ground track
Ground track

The orbit data is extracted from the following two-line orbital elements,

1 41948U 17008A   19079.66871783  .00000646  00000-0  33801-4 0  9999
2 41948  97.4073 141.8129 0007904 130.8590 229.3319 15.19288347115914
Epoch (UTC): 20 March 2019 16:02:57
Eccentricity: 0.0007904
inclination: 97.4073°
perigee height: 502 km
apogee height: 513 km
right ascension of ascending node: 141.8129°
argument of perigee: 130.8590°
revolutions per day: 15.19288347
mean anomaly at epoch: 229.3319°
orbit number at epoch: 11591

The dashed part of the orbit path shows where the satellite is in the earth's shadow,  

DLR